GFSSE_con_lsi_000.txt.gz
Lid_Strength_Index
2 1 -1 -1 -1 -1 -1 -1 -1 -1 -1 -1 -1 -1 -1 -1 -1 -1 -1 -1 -1 -1 -1 -1 -1 -1 -1 -1 -1 -1 -1 -1 -1 -1 -1 -1 -1 -1 -1 -1 -1 -1 -1
1 1 -1 -2 -1 -1 -1 -1 -1 -2 -1 -1 -1 -1 -1 -1 -1 -1 -1 -1 -1 -1 -1 -1 -1 -1 -1 -1 -1 -1 -1 -1 -1 -1 -2 -1 -1 -1 -1 -1 -1 -1 -1
0 -0 -0 -2 -1 -1 -1 -1 -1 -1 -1 -1 -1 -1 -1 -1 -1 -1 -1 -2 -1 -2 -2 -2 -2 -1 -1 -1 -1 -1 -1 -1 -1 -1 -2 -0 -0 -2 -1 -1 -1 -1 -1
-0 0 0 -1 -1 -1 -1 -1 -1 -2 -2 -1 -1 -1 -1 -1 -2 -2 -2 -1 -1 -1 -2 -2 -2 -2 -1 -1 -1 -1 -1 -1 -1 -1 -0 -0 -0 -1 -1 -1 -1 -1 -1
1 0 -0 -2 -1 -2 -1 -1 -1 -1 -1 -1 -1 -2 -2 -2 -2 -2 -1 -1 -1 -1 -1 -1 -1 -1 -1 -1 -1 -1 -1 -2 -1 -0 -1 -0 0 -1 -1 -1 -1 -1 -2
2 0 -1 -2 -1 -2 -2 -2 -2 -2 -2 -2 -2 -2 -2 -1 -0 0 0 0 0 -0 0 0 0 1 1 1 1 0 0 1 1 3 1 -0 -0 -2 -2 -1 -1 -1 -1
2 1 0 -2 -2 -2 -2 -2 -2 -2 -2 -1 -1 -1 -0 0 1 1 1 1 1 1 1 1 1 2 2 1 2 2 2 2 4 6 6 4 2 -1 -2 -2 -2 -1 -1
3 2 1 -1 -2 -2 -1 -1 -1 -1 -1 0 1 1 1 1 2 2 2 2 2 2 2 2 2 2 2 2 2 3 2 3 6 7 6 4 -0 -1 -2 -2 -2 -2 -1
4 4 4 2 1 -1 -1 -1 0 0 1 1 1 2 2 3 3 3 3 3 2 2 2 2 3 3 3 3 4 4 4 4 9 8 6 6 0 0 -2 -2 -1 -2 -1
5 5 6 5 5 5 3 0 0 1 1 2 2 3 3 4 5 5 5 4 3 3 3 4 4 5 5 5 4 4 5 5 9 8 7 6 2 0 -1 -1 -0 -0 -1
6 6 7 7 7 7 6 4 2 2 2 3 4 4 6 10 9 8 5 5 5 5 5 5 6 6 7 6 6 6 7 9 9 9 8 4 3 1 0 0 -0 -0 -1
8 8 7 7 8 9 7 7 7 7 8 9 9 9 11 11 11 8 7 6 7 7 7 6 7 8 9 11 11 9 10 10 10 10 9 5 4 3 2 1 1 0 -1
8 8 8 8 9 9 8 9 10 10 10 10 11 11 11 11 11 12 12 12 12 11 13 12 12 12 12 12 12 12 11 11 12 11 9 6 5 4 2 2 1 0 0
11 10 9 9 10 10 11 10 11 11 11 12 12 11 12 13 13 13 13 13 14 14 14 14 14 13 13 13 12 12 13 13 12 11 10 7 6 5 3 2 1 1 0
12 11 10 10 10 10 11 11 12 11 11 12 12 12 12 13 13 13 14 14 15 15 15 15 14 14 14 13 13 13 13 13 13 12 11 8 7 5 4 3 2 1 1
11 11 11 10 11 11 12 12 11 12 12 12 13 13 12 13 14 14 14 14 15 15 15 15 15 15 15 14 14 14 14 13 13 12 12 12 8 7 5 4 3 2 2
10 11 11 11 11 11 12 12 12 12 11 12 13 13 13 14 14 14 14 15 15 15 15 15 15 15 16 15 15 14 14 13 13 13 13 12 11 8 6 5 4 3 3
10 11 11 10 11 11 12 12 12 12 12 13 14 14 14 14 14 15 15 16 15 16 16 16 16 16 16 16 16 15 15 14 14 14 13 13 12 11 8 6 5 4 4
10 11 11 11 12 12 13 13 13 13 13 13 14 15 15 14 15 15 16 16 16 16 16 16 17 17 17 17 16 16 15 15 15 13 14 13 12 11 11 8 6 5 4
10 10 11 12 12 12 13 14 15 14 14 14 15 15 15 15 15 16 16 16 16 16 17 17 17 17 17 17 16 15 16 15 15 15 14 13 13 12 12 11 10 9 6
11 12 13 13 13 13 14 14 15 14 15 16 16 15 16 16 16 16 16 17 17 17 17 17 17 17 18 17 18 17 17 16 15 15 15 15 14 13 13 13 12 11 10
11 12 13 13 14 13 13 13 14 15 16 15 16 15 16 16 16 16 17 17 17 17 17 17 17 18 18 18 19 19 19 18 15 15 15 15 15 15 14 13 12 12 12
12 13 13 13 13 13 13 14 16 16 17 18 17 17 17 16 16 16 17 17 18 18 18 18 18 18 18 18 18 19 20 20 19 16 16 15 16 15 15 14 14 13 12
13 13 13 13 13 13 13 14 15 14 16 16 16 17 17 17 17 17 17 17 18 18 18 18 17 18 18 19 18 17 18 18 20 20 17 17 16 16 16 15 15 13 13
14 14 14 14 14 14 14 14 15 15 15 17 17 18 17 18 17 17 17 18 18 18 18 18 18 18 18 18 18 18 18 19 19 20 20 19 17 17 16 16 15 15 14
15 14 14 14 14 14 14 14 15 15 17 17 17 17 18 18 18 18 18 18 18 18 18 18 18 18 18 19 19 19 19 20 20 20 20 20 20 18 17 16 16 15 14

GFSSE_con_lsi_003.txt.gz
Lid_Strength_Index
2 1 -1 -1 -1 -1 -1 -1 -1 -1 -1 -1 -1 -1 -1 -1 -1 -1 -1 -1 -1 -1 -1 -1 -1 -1 -1 -1 -1 -1 -1 -1 -1 -1 -2 -1 -1 -1 -1 -1 -1 -1 -1
1 1 -1 -1 -1 -1 -1 -1 -1 -1 -1 -1 -1 -1 -1 -1 -1 -1 -1 -1 -1 -1 -1 -1 -1 -1 -1 -1 -1 -1 -1 -1 -1 -1 -1 -1 -1 -1 -1 -1 -1 -1 -1
1 1 -0 -1 -1 -1 -1 -1 -1 -1 -1 -1 -1 -1 -1 -1 -1 -1 -1 -1 -1 -1 -1 -1 -1 -1 -1 -1 -1 -1 -1 -1 -1 -1 -1 -0 1 -1 -1 -1 -1 -1 -1
1 1 0 -1 -1 -1 -1 -1 -1 -1 -1 -1 -1 -1 -1 -1 -1 -1 -1 -1 -1 -1 -2 -2 -2 -1 -1 -1 -1 -1 -1 -1 -1 0 -0 -1 -0 -2 -1 -1 -1 -1 -1
1 1 0 -1 -1 -1 -1 -1 -1 -1 -2 -1 -1 -1 -2 -1 -1 -2 -2 -1 -2 -1 -1 -1 -0 -0 -0 -0 -0 0 1 2 2 5 4 2 1 -1 -2 -1 -1 -1 -2
2 1 -0 -1 -1 -1 -1 -1 -2 -1 -2 -2 -2 -2 -2 -2 -2 -1 -1 -1 -1 -1 -0 -0 0 1 1 1 1 1 1 1 3 6 6 6 5 -1 -2 -2 -2 -1 -1
2 1 1 -1 -1 -1 -1 -2 -2 -2 -2 -2 -2 -2 -2 -1 -0 0 0 0 0 1 1 1 1 1 1 1 1 2 2 3 7 7 6 5 3 -1 -2 -1 -1 -2 -1
2 2 1 -0 -1 -2 -2 -2 -2 -2 -2 -2 -2 -1 -0 0 1 1 1 1 1 1 1 2 2 2 2 2 3 3 3 4 8 8 8 6 0 -2 -2 -2 -2 -2 -1
3 3 2 2 0 -1 -1 -2 -2 -2 -1 -1 -0 0 1 1 2 2 2 2 2 2 2 2 3 3 3 3 3 4 4 5 9 9 7 6 1 -1 -2 -1 -1 -0 -1
4 4 4 4 3 3 2 -0 -1 -2 -1 -0 0 1 2 3 3 3 3 2 2 2 3 3 4 4 4 4 5 5 6 7 10 9 9 6 2 0 -0 -0 -0 -0 0
5 5 5 5 5 5 5 3 1 0 0 0 1 2 4 8 8 7 5 3 3 4 4 5 5 6 7 7 6 7 8 11 11 10 10 5 3 2 1 1 0 -0 -0
6 6 5 6 6 7 5 5 5 5 5 6 7 8 10 11 10 9 6 5 5 5 5 6 7 8 10 12 12 10 12 12 12 11 10 6 4 3 2 1 1 0 0
5 6 6 6 7 8 7 7 7 8 9 9 10 10 12 12 10 11 11 12 13 11 13 12 13 13 13 13 13 13 13 13 13 12 10 7 6 4 3 2 2 1 1
8 6 7 7 8 9 9 8 9 9 10 11 12 11 13 12 13 13 13 14 14 14 15 14 14 14 14 14 14 14 14 14 14 13 12 8 7 5 4 3 2 2 1
10 8 7 8 8 9 10 10 10 11 10 11 12 12 12 13 13 13 14 14 15 15 15 15 15 15 15 14 14 14 15 14 14 13 13 10 8 6 4 3 2 2 2
10 10 9 8 8 9 10 10 10 11 11 12 12 12 12 13 14 14 14 15 15 15 15 15 15 16 16 15 15 15 15 14 14 14 13 13 9 7 6 4 3 3 2
10 11 11 9 9 9 10 11 11 11 12 12 13 12 12 13 14 14 15 15 15 15 15 16 16 16 16 16 16 15 15 15 14 14 14 13 12 9 7 5 4 4 4
10 11 11 10 10 10 10 11 11 12 12 12 13 13 13 13 14 15 15 16 16 16 16 16 17 17 17 17 17 16 16 15 15 14 14 14 13 12 10 7 5 4 4
10 10 12 11 10 10 11 11 12 12 12 13 14 14 14 14 14 14 15 16 16 16 16 16 17 17 18 17 16 16 16 16 15 14 15 14 14 13 13 9 8 7 5
10 10 11 11 11 11 12 12 13 13 14 14 14 15 14 14 14 15 16 16 16 17 17 17 18 17 18 18 16 17 17 16 16 16 16 15 14 14 14 13 12 11 8
11 11 11 12 12 12 13 14 14 14 14 14 15 15 15 15 15 16 16 17 17 17 17 17 17 18 18 18 18 18 17 16 16 17 16 16 15 15 14 14 14 13 13
11 11 12 12 13 12 13 13 14 13 15 15 15 15 15 16 16 16 17 17 17 17 17 17 17 18 18 18 19 19 20 18 17 16 17 16 17 15 15 14 14 14 13
12 12 12 12 13 12 12 14 17 17 18 18 17 16 16 16 16 16 17 17 17 17 18 18 18 18 19 19 18 19 20 21 19 17 17 17 17 17 16 15 15 14 13
11 12 12 12 13 12 13 14 14 15 15 15 15 15 17 17 17 17 17 17 18 18 18 18 18 18 19 19 18 17 18 18 20 21 18 18 17 17 17 16 16 15 15
13 14 14 13 13 13 13 13 14 14 14 17 17 18 17 17 17 17 17 18 18 18 18 18 18 19 19 19 19 19 19 19 19 20 20 19 18 18 17 17 17 16 15
15 15 14 14 14 14 13 14 14 14 16 17 17 17 17 17 17 18 18 18 18 19 18 18 18 19 19 19 19 19 19 20 19 20 21 20 20 19 17 17 17 16 15

GFSSE_con_lsi_006.txt.gz
Lid_Strength_Index
2 1 -1 -1 -1 -1 -1 -1 -1 -1 -1 -1 -1 -1 -1 -1 -1 -1 -1 -1 -1 -1 -1 -1 -1 -1 -2 -1 -1 -1 -1 -1 -1 -2 -1 -2 -1 -1 -1 -1 -1 -0 -1
2 0 -1 -1 -1 -1 -1 -1 -1 -1 -1 -1 -1 -1 -1 -1 -1 -1 -1 -1 -1 -1 -1 -1 -2 -2 -1 -1 -1 -1 -2 -1 -1 -1 -1 -1 -0 -1 -1 -1 -1 -1 -1
1 1 0 -1 -2 -1 -1 -1 -1 -1 -1 -1 -1 -1 -1 -1 -1 -1 -1 -1 -1 -1 -1 -1 -1 -1 -1 -1 -1 -1 -2 -1 -0 -0 -1 0 0 -1 -1 -2 -2 -1 -1
1 1 1 -1 -1 -1 -1 -1 -1 -1 -1 -1 -1 -1 -1 -1 -1 -1 -1 -1 -1 -1 -1 -1 -1 -1 -0 -0 -0 -0 0 0 2 3 4 3 3 -1 -2 -1 -1 -1 -1
1 1 1 -1 -1 -1 -1 -1 -1 -1 -1 -1 -1 -1 -1 -1 -1 -1 -1 -1 -1 -1 -2 -1 -1 -1 -0 -0 0 0 0 1 3 5 7 6 5 0 -2 -1 -1 -1 -2
3 2 -0 -1 -1 -1 -1 -1 -1 -1 -1 -2 -2 -1 -2 -2 -2 -2 -2 -2 -1 -2 -1 -1 0 0 0 0 0 1 2 3 5 7 6 4 3 -2 -2 -1 -1 -2 -2
3 2 1 -1 -1 -1 -1 -1 -1 -1 -2 -1 -2 -2 -2 -2 -2 -1 -1 -1 -1 -0 0 1 0 0 0 1 1 2 3 4 8 8 7 5 2 -2 -2 -2 -2 -1 -1
3 3 1 -0 -1 -1 -1 -2 -2 -1 -2 -2 -2 -2 -2 -1 -1 -0 0 0 0 1 1 1 1 1 2 2 2 3 3 5 8 9 8 6 0 -2 -2 -1 -1 -1 -1
3 2 2 1 0 -0 -1 -1 -1 -2 -2 -2 -2 -2 -1 0 0 1 1 1 1 1 1 2 2 3 3 3 4 4 5 6 11 10 8 7 1 -1 -1 -1 -1 -0 -0
4 3 3 3 3 2 2 -0 -1 -1 -2 -2 -2 -1 -0 0 1 1 1 1 1 1 2 3 3 3 4 4 5 6 7 8 11 11 9 6 2 1 -0 -1 -1 -1 -0
5 4 4 4 4 4 4 2 0 -1 -1 -1 0 1 3 7 6 6 4 1 2 2 3 4 5 5 6 6 6 7 9 12 12 11 10 5 3 2 1 1 0 0 0
5 5 5 5 5 5 3 4 3 3 3 4 5 6 9 9 9 8 5 2 3 3 4 5 6 7 10 13 13 11 13 13 13 12 11 6 4 3 2 2 1 1 0
4 4 5 5 6 6 6 6 6 6 6 7 8 9 11 11 10 10 10 11 11 9 12 12 13 13 14 14 14 14 14 14 14 13 11 7 5 4 3 2 2 1 1
6 5 5 5 6 7 7 6 7 7 8 9 9 10 13 12 12 12 13 14 14 14 15 14 14 14 14 14 14 15 15 15 15 14 13 8 6 5 3 3 2 1 1
8 5 5 6 5 6 8 8 8 8 8 10 11 11 12 12 13 13 14 15 15 15 15 15 15 15 15 15 15 15 15 15 15 14 14 9 7 6 4 3 3 2 2
9 7 6 6 6 6 7 8 7 8 10 11 12 12 13 12 13 14 14 15 15 16 16 16 16 16 16 16 16 15 15 15 15 15 14 14 8 7 5 4 4 3 3
9 9 8 6 6 7 7 8 8 9 10 11 11 12 13 13 13 14 14 15 16 16 16 16 16 16 17 16 17 16 16 15 15 15 14 14 13 9 6 5 4 3 3
9 10 10 7 7 7 7 9 9 10 10 11 12 12 13 13 13 14 14 15 16 16 16 17 17 17 17 17 17 17 16 16 15 15 15 15 14 13 10 7 7 5 4
9 10 11 10 9 8 8 9 10 11 11 11 12 13 13 13 14 14 15 15 16 16 17 17 17 18 18 18 17 17 17 16 16 15 16 15 15 15 15 11 10 9 8
10 10 11 11 10 9 9 11 13 13 12 13 13 13 14 13 14 15 15 16 16 17 17 17 18 17 18 18 17 17 17 17 17 17 16 15 16 15 15 15 15 13 9
12 12 12 12 11 11 11 12 13 12 13 14 13 13 14 14 15 15 16 16 17 17 17 18 18 18 18 18 18 18 18 17 17 17 17 17 16 16 16 16 15 15 14
11 12 12 12 12 11 11 11 12 11 14 13 14 15 15 15 15 15 16 16 17 18 18 18 17 18 18 18 19 19 19 19 18 17 17 17 17 17 16 16 16 15 15
13 13 12 12 13 12 12 12 16 16 17 17 17 16 16 15 16 16 16 16 17 17 18 18 18 18 19 19 19 18 20 20 20 18 18 17 18 17 17 16 16 15 15
12 13 13 13 13 12 12 13 13 14 14 14 13 14 15 16 16 16 16 16 17 17 18 18 18 19 18 19 18 18 19 19 20 21 19 18 18 18 18 17 17 16 15
13 14 14 14 14 13 12 13 13 13 13 16 16 15 16 16 16 16 16 17 17 17 18 18 18 19 19 19 19 19 19 20 20 20 21 20 19 18 18 17 17 17 15
14 15 15 15 15 14 13 13 13 13 16 16 17 16 17 17 17 17 17 17 17 17 18 18 18 19 19 19 19 19 19 20 20 20 21 21 21 19 19 18 17 17 15

GFSSE_con_lsi_009.txt.gz
Lid_Strength_Index
1 -0 -1 -1 -1 -1 -1 -1 -1 -1 -1 -1 -1 -1 -1 -1 -1 -1 -1 -1 -1 -1 -2 -1 -1 -2 -2 -2 -2 -2 -1 -1 -1 -1 -1 -1 -1 -1 -1 -1 -1 -1 -1
-0 -0 -1 -1 -1 -1 -2 -2 -2 -1 -1 -1 -1 -1 -1 -1 -1 -1 -1 -1 -1 -1 -2 -2 -2 -2 -1 -1 -1 -1 -2 -2 -1 -2 -1 -1 -1 -1 -2 -2 -2 -1 -1
-0 -1 -1 -1 -1 -2 -1 -1 -1 -1 -1 -1 -1 -1 -1 -1 -1 -1 -1 -1 -1 -1 -2 -2 -1 -1 -1 -1 -1 -1 -1 -0 1 1 1 1 -0 -1 -2 -2 -2 -2 -2
-0 -1 -1 -1 -1 -1 -1 -1 -1 -1 -1 -1 -1 -1 -1 -1 -1 -1 -1 -1 -1 -2 -2 -1 -1 -2 -1 -1 -1 -1 -0 1 2 3 3 2 2 -1 -1 -1 -1 -1 -2
-0 -1 -1 -1 -1 -1 -1 -1 -1 -1 -2 -1 -1 -1 -1 -1 -1 -1 -1 -1 -1 -1 -1 -1 -1 -1 -1 -1 -1 -0 1 2 2 2 2 -0 -1 -1 -2 -2 -1 -1 -2
0 0 -0 -1 -1 -1 -1 -1 -1 -2 -2 -2 -1 -1 -1 -1 -1 -1 -1 -1 -1 -2 -2 -1 -0 -0 -0 -0 0 1 2 3 4 3 1 -0 -1 -1 -2 -2 -2 -2 -2
1 0 -0 -1 -1 -1 -1 -1 -1 -1 -1 -2 -2 -2 -2 -1 -2 -2 -2 -2 -2 -1 -0 -0 -0 -0 1 1 1 2 3 4 5 4 3 1 -1 -2 -2 -2 -1 -1 -1
1 1 0 -0 -1 -1 -1 -1 -2 -2 -2 -2 -2 -2 -2 -2 -2 -1 -1 -1 -1 -0 0 0 1 1 1 2 2 3 4 6 7 5 4 2 -1 -2 -2 -2 -1 -1 -1
2 2 1 -1 -0 0 -1 -1 -1 -1 -2 -2 -1 -2 -2 -2 -1 -0 -0 -0 -0 0 0 1 1 1 2 3 3 4 5 6 8 6 5 3 0 -1 -1 -1 -1 -1 -1
2 1 1 -0 -0 -1 -1 0 -0 -1 -1 -2 -2 -2 -2 -1 -1 -0 -0 -0 0 0 1 2 2 2 3 4 5 6 7 8 8 7 6 4 2 1 0 -0 -1 -1 -1
3 2 1 1 1 0 1 0 1 0 -0 -1 -1 -0 1 1 2 2 2 0 1 1 2 3 3 4 5 5 6 7 9 10 9 8 6 5 3 2 1 1 0 0 -0
3 2 2 1 2 2 2 1 1 1 0 0 0 2 4 4 4 5 3 1 1 2 3 4 5 7 9 10 10 10 10 10 10 10 8 6 4 3 2 1 1 1 0
2 2 2 2 2 3 2 3 2 2 2 2 3 4 5 6 5 5 5 5 5 6 6 7 9 10 10 10 11 11 11 11 10 10 9 6 4 3 2 2 1 1 1
4 3 2 2 3 3 3 2 2 2 3 3 4 6 7 7 7 7 7 8 8 9 10 10 10 11 11 11 11 12 11 11 11 10 10 7 5 4 3 2 2 1 1
5 4 3 3 3 3 4 3 3 3 3 4 5 7 7 9 8 8 8 10 10 11 11 11 11 12 12 12 12 12 12 12 12 11 10 7 6 4 3 2 3 2 1
6 5 3 3 3 3 3 4 3 3 4 5 6 7 9 9 9 9 10 11 11 12 12 12 12 12 12 12 13 13 12 12 12 11 11 9 7 5 4 3 3 3 3
7 6 5 4 4 4 4 4 4 4 6 6 6 7 9 9 10 10 11 12 12 12 12 12 13 13 13 13 13 13 13 12 12 12 11 11 8 5 5 4 4 3 2
8 8 7 5 5 4 4 4 4 5 6 6 7 8 9 10 10 11 11 12 12 12 12 13 13 14 13 13 13 13 13 12 12 12 12 12 11 11 10 8 6 5 5
8 8 9 7 5 5 4 5 5 6 6 6 8 8 9 10 10 11 11 12 13 13 13 13 14 14 14 14 14 13 13 12 13 13 13 12 12 13 12 10 9 8 7
9 9 9 9 7 6 6 6 7 8 7 7 8 9 10 10 11 11 12 13 13 13 13 13 13 14 14 14 15 14 13 13 13 13 13 13 13 13 13 12 12 11 9
10 10 10 11 9 7 7 9 10 9 9 10 9 9 10 10 11 11 12 13 14 14 14 14 14 14 15 15 14 14 14 14 14 13 13 14 14 14 13 13 13 12 10
10 11 11 11 11 9 8 8 9 9 9 9 10 10 10 11 12 12 13 14 14 14 15 14 14 15 15 15 14 14 15 15 14 14 14 15 15 14 14 14 13 13 12
11 11 12 11 11 10 9 10 13 13 13 12 12 12 12 12 12 13 13 14 14 14 15 14 14 14 15 15 15 13 16 15 16 15 15 14 15 14 14 14 14 13 12
11 11 12 12 12 11 11 11 11 11 12 12 11 11 12 12 12 13 13 14 14 14 14 14 15 14 14 15 15 16 16 15 15 17 16 15 15 15 15 14 14 13 12
12 12 12 12 12 11 12 11 12 12 11 12 11 12 13 13 13 13 13 14 14 14 14 15 15 15 15 14 15 16 16 16 16 16 16 16 16 15 15 14 14 13 13
13 14 13 13 13 13 12 12 12 12 13 14 13 13 13 14 14 14 14 14 14 14 15 15 15 15 15 15 15 15 16 16 17 16 17 17 17 16 15 15 14 13 14

GFSSE_con_lsi_012.txt.gz
Lid_Strength_Index
0 -1 -1 -1 -1 -1 -1 -1 -1 -1 -1 -1 -1 -1 -1 -1 -1 -1 -1 -1 -1 -1 -1 -1 -1 -1 -1 -1 -1 -1 -1 -1 -1 -1 -1 -1 -1 -1 -1 -1 -1 -1 -1
-1 -1 -1 -1 -1 -1 -1 -1 -1 -1 -1 -1 -1 -1 -1 -1 -1 -1 -1 -1 -1 -1 -1 -1 -1 -1 -1 -1 -1 -1 -1 -1 -1 -0 -0 -1 -1 -1 -1 -1 -2 -1 -1
-0 -1 -1 -1 -1 -1 -1 -1 -1 -1 -1 -1 -1 -1 -1 -1 -1 -1 -1 -1 -1 -1 -1 -2 -1 -1 -1 -1 -1 -1 -1 -0 1 1 1 -1 -1 -1 -1 -1 -2 -1 -1
-1 -1 -1 -1 -1 -1 -1 -1 -1 -1 -1 -1 -1 -1 -1 -1 -1 -1 -1 -1 -1 -1 -2 -1 -1 -1 -1 -1 -1 -1 0 1 1 1 -2 -1 -1 -1 -1 -1 -1 -1 -1
-1 -1 -1 -1 -1 -1 -1 -1 -1 -1 -1 -1 -1 -1 -1 -1 -1 -1 -1 -1 -1 -1 -1 -1 -1 -1 -1 -1 0 1 1 2 2 -1 -1 -1 -2 -1 -1 -1 -1 -1 -2
-1 -1 -1 -1 -1 -1 -1 -1 -1 -1 -1 -1 -1 -2 -2 -1 -1 -1 -1 -1 -1 -1 -2 -1 -1 -1 -0 0 1 2 2 3 2 1 -1 -1 -1 -1 -1 -1 -1 -1 -2
-0 -1 -1 -1 -1 -1 -1 -1 -1 -1 -1 -1 -2 -1 -1 -1 -1 -1 -1 -1 -2 -2 -1 -1 -1 0 0 1 2 3 3 4 3 3 1 -1 -2 -1 -1 -1 -1 -1 -1
-0 -1 -1 0 -0 -1 -1 -1 -1 -1 -1 -2 -2 -1 -2 -1 -1 -1 -2 -2 -2 -1 -0 -0 0 1 1 2 2 3 5 6 4 3 2 0 -1 -1 -1 -1 -1 -1 -1
-1 -1 -1 -1 -1 1 -0 -0 -1 -1 -2 -2 -2 -2 -2 -2 -2 -2 -2 -1 -1 -0 -0 0 1 1 2 3 3 5 5 6 5 4 4 2 1 -0 -1 -1 -1 -1 -1
-0 -0 -1 -1 -1 -1 -1 0 0 -1 -1 -1 -1 -1 -1 -1 -2 -1 -1 -1 -0 -0 1 1 1 2 3 4 5 6 7 7 6 5 4 3 2 1 0 -0 -1 -1 -1
0 -0 -1 -1 -1 -1 -1 -0 0 0 -0 -0 -1 0 1 -1 -1 0 0 -1 -0 0 1 2 2 3 4 5 6 7 8 7 7 6 5 4 3 2 1 1 1 0 -0
1 1 -0 -0 -1 -1 -1 -1 -1 -1 -1 -1 -1 -1 -1 -1 0 1 2 0 -0 1 2 2 3 5 8 7 8 8 8 8 8 8 6 5 4 3 2 2 1 1 0
1 1 0 -0 -1 -1 -1 -1 -1 -1 -1 -1 -1 -1 -1 0 1 2 2 1 1 3 3 4 6 7 7 7 8 8 8 8 8 8 7 6 4 3 3 2 1 1 1
1 1 0 -0 -0 -1 -1 -1 -1 -1 -1 -1 -1 -1 0 1 2 3 2 2 2 3 4 6 7 7 8 9 9 9 9 8 8 8 8 7 5 4 3 2 2 1 1
2 1 0 -0 -0 -0 -0 -1 -1 -0 -1 -1 -1 -0 1 2 3 3 3 3 3 4 6 8 8 8 9 9 9 9 9 9 9 8 7 7 5 4 3 2 2 1 1
3 2 1 0 -0 -0 -0 -0 -0 -1 -1 -1 -1 0 1 2 3 4 4 4 5 6 7 8 8 8 9 9 10 10 9 9 9 9 8 6 6 5 4 3 3 3 2
4 3 2 1 1 0 -0 -0 -0 -1 -1 -0 0 1 2 3 4 5 5 5 6 8 8 8 9 9 9 10 10 10 10 10 9 9 9 7 5 5 4 4 3 2 2
5 4 3 3 2 1 0 0 0 -0 0 0 0 1 2 3 4 5 6 6 7 8 9 9 9 10 10 10 10 10 10 10 10 10 9 8 7 8 8 6 5 5 5
5 5 5 4 3 2 1 1 1 1 1 1 1 2 3 4 5 6 6 7 8 9 9 9 10 10 10 10 11 10 10 10 10 11 10 10 11 10 9 8 8 7 7
5 5 5 5 5 3 2 2 1 2 2 2 2 2 3 4 6 6 7 7 9 9 10 10 10 10 10 10 12 11 11 10 10 11 11 11 11 11 11 10 9 8 7
6 6 6 6 6 5 4 4 3 3 3 3 3 3 4 4 6 7 7 8 9 9 9 10 10 11 11 10 11 11 11 11 11 11 11 11 12 12 11 11 10 9 8
7 7 7 7 7 6 5 4 4 4 4 4 4 4 4 5 6 7 7 8 10 10 10 10 11 12 11 11 10 10 12 13 12 12 12 12 12 12 12 12 11 10 9
9 9 9 8 8 7 6 5 5 7 6 6 6 6 6 6 6 7 8 8 9 10 11 10 11 11 12 12 11 10 12 12 13 12 12 13 13 12 12 12 12 11 9
10 9 9 9 8 8 7 7 7 8 9 8 8 7 7 7 7 8 8 9 9 10 10 10 10 10 10 12 12 12 12 10 12 14 13 13 13 13 13 12 12 11 10
10 11 10 10 10 9 9 8 8 8 8 8 8 8 8 8 8 8 9 9 9 10 9 10 11 11 10 9 10 12 12 12 12 11 14 14 13 13 13 13 12 11 11
10 10 11 11 11 10 10 9 9 9 9 9 10 9 9 10 10 9 9 9 9 10 10 10 11 11 11 10 10 11 11 12 13 12 13 13 14 14 13 13 12 11 12

GFSSE_con_lsi_015.txt.gz
Lid_Strength_Index
0 -1 -1 -1 -1 -1 -1 -1 -1 -1 -1 -1 -1 -1 -1 -1 -1 -1 -1 -1 -1 -1 -1 -1 -1 -1 -1 -1 -1 -1 -1 -1 -1 -1 -1 -1 -1 -1 -1 -1 -1 -1 -1
-0 -1 -1 -1 -1 -1 -1 -1 -1 -1 -1 -1 -1 -1 -1 -1 -1 -1 -1 -1 -1 -1 -1 -1 -1 -1 -1 -1 -1 -1 -1 -1 -1 1 1 -2 -2 -1 -1 -2 -2 -1 -1
-0 -1 -1 -1 -1 -1 -1 -1 -1 -1 -1 -1 -1 -1 -1 -1 -1 -1 -1 -1 -1 -1 -1 -1 -1 -1 -1 -1 -0 -1 -0 0 0 1 -0 -1 -1 -1 -1 -1 -2 -1 -1
-0 -1 -1 -0 -1 -1 -1 -1 -1 -1 -1 -1 -1 -1 -1 -1 -1 -1 -1 -1 -1 -1 -1 -1 -1 -1 0 1 1 1 1 1 1 0 -1 -1 -1 -1 -1 -1 -1 -1 -1
-0 -1 -1 -1 -1 -1 -1 -1 -1 -1 -1 -1 -1 -1 -1 -1 -1 -1 -1 -1 -1 -1 -1 -1 -1 -1 -1 0 1 2 2 3 2 -0 -1 -1 -1 -1 -1 -1 -1 -1 -2
-0 -1 -1 -1 -1 -1 -1 -1 -1 -1 -1 -1 -1 -1 -2 -1 -1 -1 -1 -1 -1 -1 -1 -1 -1 -1 -0 1 2 2 3 3 2 1 -1 -1 -1 -1 -2 -1 -1 -1 -2
-0 -1 -1 -1 -1 -1 -1 -1 -1 -1 -1 -1 -2 -2 -2 -2 -1 -1 -1 -1 -1 -1 -1 -1 -1 -0 0 1 2 3 3 3 3 2 0 -1 -1 -1 -1 -1 -1 -1 -1
-0 -1 -1 0 -0 -1 -1 -1 -1 -1 -1 -1 -2 -2 -2 -2 -1 -1 -1 -1 -1 -1 -1 -1 -0 1 1 2 3 4 4 4 3 3 1 -0 -1 -1 -1 -1 -1 -1 -1
-0 -0 -1 -1 -0 1 0 0 -0 -1 -1 -1 -2 -2 -2 -2 -1 -1 -1 -1 -1 -1 -1 -0 1 1 2 3 4 5 5 4 4 4 3 1 0 -0 -1 -1 -1 -1 -1
-0 -0 -0 -1 -1 -1 -1 1 1 0 -1 -1 -1 -0 -0 -1 -1 -2 -2 -2 -1 -1 -0 0 1 1 2 3 5 6 7 5 6 5 4 3 1 1 0 0 -0 -0 -1
0 0 -0 -0 -1 -1 -1 -0 1 1 1 0 0 1 1 -1 -1 -1 -1 -1 -1 -1 0 1 1 2 3 5 6 7 7 6 7 6 5 4 3 2 2 1 1 0 0
1 1 0 -0 -0 -1 -0 -1 -1 -1 -1 -0 -1 -1 -1 -1 -1 -0 1 -0 -1 -0 1 1 2 3 5 6 7 7 7 7 7 7 6 4 3 3 2 2 1 1 0
1 1 0 -0 -0 -0 -0 -1 -1 -1 -1 -1 -1 -1 -1 -1 -1 0 0 1 0 2 2 2 4 6 6 6 7 7 7 7 7 7 7 5 3 3 2 2 1 1 1
1 1 0 -0 -0 -0 -0 -0 -1 -0 -1 -1 -1 -1 -1 -1 -1 0 1 1 0 1 2 3 5 5 6 7 7 7 8 7 7 7 7 5 4 3 2 2 2 1 1
2 1 0 -0 0 -0 -0 -0 -0 -0 -0 -1 -1 -1 -1 -0 0 1 1 1 1 2 3 4 6 7 7 8 8 8 8 8 8 8 6 5 4 3 3 2 2 1 1
3 2 1 0 -0 -0 0 -0 -0 -0 -1 -1 -1 -1 -1 -1 0 1 2 1 2 3 4 6 6 7 7 7 8 9 9 9 9 8 7 6 5 4 4 4 3 3 2
3 3 2 0 -0 0 0 -0 -0 -0 -0 -0 -0 -1 -1 -1 0 2 2 2 2 3 5 6 7 7 8 8 8 9 9 9 9 9 8 6 5 5 4 3 3 2 2
4 4 3 3 1 0 0 -0 -0 -0 -0 -0 -1 -1 -1 -0 1 2 3 3 3 5 6 7 7 8 8 9 9 9 9 9 9 9 8 7 6 6 6 6 5 4 4
5 5 4 4 3 2 0 -0 -0 -0 -0 -0 -1 -1 -1 0 1 3 4 4 4 6 7 7 8 8 9 9 9 9 9 8 9 10 9 9 10 8 8 8 8 7 6
5 5 5 5 4 3 2 1 0 0 -0 -0 -0 -0 0 1 2 3 4 5 6 7 7 7 8 8 8 9 11 11 9 9 9 9 10 10 10 10 9 9 8 8 6
7 7 7 6 5 5 4 3 2 2 1 1 0 0 1 1 2 4 5 5 6 7 8 8 8 9 9 9 10 10 11 11 10 10 10 10 11 11 10 10 9 7 7
9 9 8 7 7 6 5 4 3 3 2 2 2 1 1 2 3 4 5 6 7 8 8 8 9 10 9 10 10 11 13 12 11 11 10 11 11 11 11 11 10 9 7
10 10 9 8 8 7 6 5 4 4 5 5 4 3 3 3 4 5 6 6 7 8 8 8 9 10 11 11 9 9 11 12 12 11 11 11 12 12 12 11 11 10 8
10 9 9 9 9 8 7 7 7 6 7 6 6 5 5 5 5 5 6 7 7 8 9 8 9 9 9 12 11 10 10 9 12 15 12 12 12 13 12 11 11 11 9
10 10 9 9 10 9 8 8 8 8 7 6 7 7 6 6 6 6 7 7 8 8 9 9 9 9 9 10 11 11 12 11 10 11 14 13 12 13 12 12 12 11 11
10 10 9 10 10 10 10 10 9 9 9 8 8 8 8 7 7 7 7 8 8 9 9 9 9 10 10 10 10 10 12 12 13 11 11 13 14 14 13 12 12 11 11

GFSSE_con_lsi_021.txt.gz
Lid_Strength_Index
1 -0 -1 -1 -1 -1 -1 -1 -1 -2 -2 -1 -1 -1 -1 -1 -1 -1 -1 -1 -1 -1 -1 -1 -1 -2 -2 -1 -1 -1 -1 -0 0 -1 -2 -2 -1 -2 -1 -1 -1 -1 -1
1 -0 -0 -1 -1 -1 -1 -1 -1 -2 -2 -1 -1 -1 -1 -1 -1 -1 -1 -1 -2 -1 -1 -1 -1 -1 -1 -1 -1 -1 -0 0 1 1 -0 -2 -2 -2 -2 -2 -2 -1 -1
0 -0 -0 -1 -1 -1 -1 -1 -1 -1 -1 -1 -1 -1 -1 -1 -1 -1 -1 -1 -1 -1 -1 -1 -1 -1 -1 -1 -0 1 0 1 1 -0 -0 2 -1 -2 -2 -2 -2 -1 -1
-0 -0 -0 -0 -1 -1 -1 -1 -1 -1 -2 -1 -1 -1 -1 -1 -1 -1 -1 -1 -1 -1 -1 -1 -1 -1 -0 0 1 1 1 1 -0 -1 1 0 -1 -1 -1 -2 -1 -1 -1
0 -0 -0 -0 -1 -1 -1 -1 -2 -2 -1 -1 -1 -1 -1 -1 -1 -1 -1 -1 -1 -1 -1 -1 -1 -0 1 2 2 3 3 3 1 1 1 1 -0 -1 -2 -1 -1 -1 -2
1 -0 -0 -0 -1 -1 -1 -1 -2 -2 -2 -2 -1 -1 -1 -1 -2 -2 -1 -2 -1 -1 -1 -1 -1 -1 0 1 2 2 2 1 2 3 1 1 0 -1 -2 -1 -1 -1 -1
2 1 -0 -0 -1 -1 -1 -1 -1 -1 -2 -2 -2 -2 -2 -2 -2 -1 -1 -1 -1 -1 -1 -1 -1 -1 0 1 2 2 2 1 5 2 2 2 1 -1 -1 -1 -1 -1 -1
2 0 -0 1 0 -0 -1 -1 -1 -1 -1 -1 -1 -2 -2 -2 -2 -2 -1 -1 -1 -1 -1 -2 -1 -0 1 2 3 3 3 1 4 3 2 2 -2 -1 -1 -1 -1 -1 -1
2 0 0 -0 0 1 0 -0 -0 -1 -1 -1 -1 -1 -1 -2 -2 -2 -2 -2 -1 -1 -2 -2 -1 0 1 2 3 4 3 2 7 4 3 3 -1 -1 -1 -1 -1 -1 -1
2 1 0 1 1 0 0 1 1 0 -0 -0 -0 0 0 -1 -1 -1 -1 -2 -2 -2 -2 -1 -0 0 1 3 5 5 4 4 8 6 5 3 0 -0 -0 -0 -1 -1 -1
3 2 1 0 0 0 1 1 2 1 1 1 1 2 2 2 1 1 1 -1 -2 -2 -2 -1 0 1 2 4 6 6 5 10 9 7 6 2 2 1 1 0 0 -0 -0
3 3 2 2 1 0 -0 1 1 1 1 1 1 2 1 2 2 2 3 -1 -2 -2 -2 -1 0 1 4 9 10 7 10 10 10 8 6 3 2 2 2 2 1 -0 -0
4 2 2 2 2 1 0 1 0 -0 1 1 -0 1 1 1 2 4 5 2 2 1 2 2 3 6 7 9 11 10 11 11 11 9 6 4 2 2 2 1 0 1 1
7 3 2 1 2 2 2 2 1 1 1 2 0 0 1 1 2 5 5 3 3 4 5 6 7 8 9 10 10 11 11 11 11 10 7 4 3 3 2 1 1 1 0
8 7 3 2 1 2 2 3 3 1 2 2 2 1 0 1 2 5 5 4 4 5 5 6 7 9 10 10 11 11 11 12 11 9 9 4 2 2 2 1 1 1 1
8 7 6 2 1 2 2 3 3 3 3 3 3 2 2 2 2 4 6 5 4 4 6 7 8 10 10 11 11 11 11 11 11 10 9 6 3 2 3 2 1 1 1
9 8 8 6 2 3 3 3 3 3 3 3 2 2 2 2 4 5 6 5 4 5 6 8 9 10 11 11 12 11 11 11 12 11 9 8 6 4 2 2 2 2 0
10 9 9 8 5 3 3 3 2 3 3 3 3 3 2 3 4 6 7 6 5 6 7 9 10 11 11 12 13 12 12 12 12 11 11 9 8 8 6 4 3 1 2
11 10 10 9 9 5 3 3 3 3 3 3 3 3 3 3 5 5 7 7 7 7 9 9 11 11 12 13 12 13 13 12 12 11 11 11 12 10 10 7 6 5 4
11 11 10 10 9 8 6 5 4 4 4 4 3 3 2 3 4 5 7 7 7 8 10 11 11 12 12 13 12 12 13 12 13 13 12 12 13 12 11 11 11 9 5
12 12 11 11 10 9 8 7 6 6 5 5 3 2 2 3 3 6 7 7 8 9 10 11 12 12 13 13 14 14 14 13 13 13 13 13 13 13 13 13 12 11 9
13 12 12 12 11 10 9 8 8 8 8 7 5 4 3 3 4 5 7 8 9 11 11 11 12 13 13 13 14 15 16 15 14 13 13 13 14 13 13 13 13 12 10
13 13 12 12 12 12 11 10 9 9 9 9 9 7 6 5 4 5 6 8 9 9 11 11 12 12 13 14 13 14 17 17 16 14 14 14 14 15 14 14 13 12 10
14 13 12 12 12 12 12 12 13 12 12 11 11 10 10 8 7 6 6 7 9 10 11 12 12 12 13 15 15 13 14 14 17 17 15 15 15 15 15 15 14 13 11
13 14 14 12 12 12 12 12 13 13 13 13 12 12 12 11 9 8 8 8 9 10 11 11 12 13 14 14 14 15 15 15 15 17 18 17 16 15 15 15 15 14 12
13 14 14 14 14 12 12 12 13 14 14 14 13 13 13 12 12 12 11 10 10 10 11 11 11 12 12 14 14 15 15 15 16 16 17 18 18 17 16 15 15 14 14

GFSSE_con_lsi_024.txt.gz
Lid_Strength_Index
1 -0 -1 -1 -1 -1 -1 -1 -1 -1 -1 -1 -1 -1 -1 -1 -1 -1 -1 -1 -1 -1 -1 -1 -1 -1 -2 -2 -1 -1 -0 -0 -0 -1 -1 -1 -1 -1 -1 -1 -1 -1 -1
0 -0 -0 -1 -1 -1 -1 -1 -1 -1 -2 -1 -1 -1 -1 -1 -1 -1 -1 -1 -2 -1 -1 -1 -1 -1 -1 -1 -1 -1 0 1 1 0 -1 -2 -2 -1 -2 -2 -2 -1 -1
0 -0 -0 -1 -1 -1 -1 -1 -1 -2 -1 -1 -1 -1 -1 -1 -1 -1 -1 -1 -1 -1 -1 -1 -1 -1 -1 -1 -0 -0 0 1 1 1 1 2 -1 -2 -2 -1 -2 -1 -1
-0 -0 -0 -0 -1 -1 -1 -1 -1 -1 -2 -1 -1 -1 -1 -1 -1 -1 -1 -1 -1 -1 -1 -1 -1 -1 -1 -0 0 1 1 1 0 -1 1 0 -1 -1 -1 -1 -1 -1 -1
0 -0 -0 -0 -1 -1 -1 -1 -1 -1 -1 -1 -1 -1 -1 -1 -1 -1 -1 -1 -1 -1 -1 -1 -1 -1 0 1 2 3 3 1 0 -0 0 1 0 -1 -1 -1 -1 -1 -2
0 -0 -0 -1 -1 -1 -1 -1 -1 -1 -1 -1 -1 -1 -1 -1 -1 -1 -1 -1 -1 -1 -1 -1 -1 0 2 2 2 2 1 0 -0 1 2 1 0 -1 -1 -1 -1 -2 -2
1 0 -0 -0 -1 -1 -1 -1 -1 -1 -2 -1 -2 -2 -1 -1 -2 -2 -2 -1 -1 -1 -1 -1 -1 -1 1 2 2 2 1 1 2 2 3 2 1 -1 -1 -2 -1 -1 -1
1 1 -0 1 0 -0 -1 -1 -1 -1 -2 -2 -2 -2 -2 -2 -2 -2 -1 -1 -1 -1 -1 -1 -1 -0 1 2 3 2 1 2 2 3 3 3 -1 -1 -1 -1 -1 -1 -1
2 1 1 0 1 1 1 0 -0 -1 -1 -1 -1 -1 -1 -1 -2 -2 -2 -2 -2 -1 -1 -1 -1 0 1 3 3 3 1 2 4 4 3 2 -2 -1 -1 -1 -1 -1 -1
2 0 1 1 0 0 0 2 1 0 -0 -0 -0 0 1 -0 -1 -1 -0 -2 -2 -1 -1 -1 -1 0 1 3 4 4 3 4 6 6 4 3 -1 -0 -0 -0 -1 -1 -1
3 2 1 1 1 1 1 1 1 1 1 1 1 2 3 2 1 1 1 -1 -2 -2 -2 -1 -0 0 2 4 6 5 6 10 8 7 6 2 2 1 1 0 0 -0 -1
4 3 2 1 1 1 0 1 1 -0 -0 -0 0 1 2 2 2 3 3 1 -1 -1 -2 -1 -0 1 4 10 10 7 11 11 9 9 6 2 2 2 1 1 1 -0 -0
6 4 2 1 1 1 0 1 2 1 2 2 2 2 2 2 3 3 4 3 3 1 1 1 2 6 9 11 11 11 11 11 10 10 6 3 2 2 1 1 -0 -0 0
8 6 3 2 1 1 0 1 1 1 0 2 2 2 1 2 2 4 3 4 5 4 4 5 6 7 9 10 11 11 12 12 11 10 7 3 2 2 1 0 0 0 0
10 9 8 3 2 2 2 2 1 1 0 1 3 3 2 1 4 4 5 5 6 5 5 6 7 8 10 11 11 11 12 12 12 10 10 4 2 2 1 1 0 0 0
10 10 9 7 2 2 2 3 2 2 2 2 3 3 2 2 2 4 4 5 6 6 6 6 7 9 11 11 11 11 12 12 12 10 10 7 2 2 1 1 1 -0 0
11 10 10 8 5 2 3 3 4 3 3 3 3 3 3 3 4 4 4 5 5 7 6 7 8 10 11 12 12 12 12 12 12 11 10 8 6 3 2 2 1 1 1
12 11 10 9 8 3 3 4 3 4 4 4 3 3 3 2 3 5 5 5 4 7 7 8 9 11 11 12 13 13 12 12 12 11 11 8 8 7 5 4 3 1 0
12 12 11 10 9 7 4 4 4 4 4 4 4 3 2 2 3 4 5 5 6 6 8 9 11 11 12 13 13 13 13 13 12 11 11 10 10 9 9 6 6 5 3
12 12 12 11 11 9 6 6 5 5 5 5 4 3 2 3 4 5 6 6 6 7 9 11 11 12 12 12 12 13 14 13 13 13 12 11 12 11 10 10 11 9 6
13 13 12 12 12 11 10 8 7 7 7 7 4 3 2 2 4 5 5 6 7 7 7 9 12 12 13 14 14 14 14 14 13 14 13 13 13 12 12 12 11 11 9
14 13 13 13 13 12 11 11 9 10 9 9 7 7 7 4 3 5 6 6 7 8 9 10 10 13 13 13 14 16 16 15 14 14 14 13 13 13 13 12 12 12 10
15 14 13 13 13 13 12 12 11 11 11 11 11 11 10 9 6 5 5 7 8 8 9 10 11 11 13 14 14 14 17 17 16 15 15 14 14 14 14 13 13 12 11
15 14 14 13 13 12 12 13 13 14 14 14 13 13 12 12 11 10 8 7 8 9 9 10 10 11 12 13 15 14 14 15 16 17 15 15 15 14 14 14 14 13 12
14 15 15 14 14 13 13 13 13 14 14 13 13 14 13 13 13 13 12 12 10 9 10 10 11 12 12 12 13 15 16 16 16 17 17 17 16 15 14 14 14 14 13
15 15 14 13 14 14 14 14 14 15 15 16 15 15 14 14 14 14 13 13 13 12 11 10 11 11 12 12 13 13 13 15 16 16 18 18 18 17 16 15 15 14 13

GFSSE_con_lsi_027.txt.gz
Lid_Strength_Index
2 0 -1 -1 -1 -1 -1 -1 -1 -1 -1 -1 -1 -1 -1 -1 -1 -1 -1 -1 -1 -1 -1 -1 -1 -1 -1 -1 -1 -1 -1 -1 -1 -1 -1 -1 -1 -1 -1 -1 -1 -1 -1
1 -0 -0 -1 -1 -1 -1 -1 -1 -1 -1 -1 -1 -1 -1 -1 -1 -1 -1 -1 -1 -1 -1 -1 -1 -1 -1 -1 -1 -0 0 0 0 -0 -1 -1 -2 -1 -2 -1 -2 -1 -1
0 -0 -0 -1 -1 -1 -1 -1 -1 -1 -1 -1 -1 -1 -1 -1 -1 -1 -1 -1 -1 -1 -1 -1 -1 -1 -1 -0 -0 -1 1 1 1 -0 0 0 -0 -1 -1 -1 -2 -1 -1
0 -0 -0 -0 -1 -1 -1 -1 -1 -2 -1 -1 -1 -1 -1 -1 -1 -1 -1 -1 -1 -1 -1 -1 -1 -1 -0 0 0 0 0 1 -0 -1 1 0 -0 -1 -1 -1 -1 -1 -1
0 -0 -0 -0 -1 -1 -1 -1 -1 -1 -1 -1 -1 -1 -1 -1 -1 -1 -1 -1 -1 -1 -1 -1 -1 -0 0 1 1 2 1 1 -1 -0 1 1 1 -1 -1 -1 -1 -1 -1
1 0 -0 -1 -1 -1 -1 -1 -1 -1 -1 -1 -1 -1 -1 -1 -1 -1 -1 -1 -1 -1 -1 -1 -0 1 2 3 4 2 1 -1 -1 2 3 1 0 -1 -1 -1 -1 -2 -1
1 1 0 -0 -1 -1 -1 -1 -1 -1 -1 -1 -1 -1 -1 -1 -1 -1 -1 -2 -2 -1 -1 -1 -1 0 1 2 2 1 1 -1 2 3 3 3 1 -1 -1 -1 -2 -1 -1
1 1 0 1 0 -0 -1 -1 -1 -1 -1 -1 -1 -1 -2 -1 -1 -2 -1 -2 -1 -1 -1 -1 -1 -0 1 3 2 1 1 1 2 3 4 3 -1 -1 -1 -1 -1 -1 -1
2 1 1 0 1 2 1 0 -0 -1 -1 -1 -1 -1 -1 -1 -1 -2 -2 -2 -1 -1 -1 -1 -1 0 1 3 3 2 2 1 5 4 3 2 -2 -1 -1 -1 -1 -1 -1
2 1 1 1 0 0 0 2 1 0 -0 -1 -0 0 1 0 -0 -1 -0 -1 -1 -2 -1 -1 -1 0 1 3 4 3 3 3 6 5 4 3 -1 -0 -0 -1 -1 -1 -1
4 2 2 2 1 -0 0 1 2 1 1 0 1 2 2 1 1 2 1 -0 -2 -2 -1 -1 -1 0 2 4 5 4 6 8 8 7 6 2 1 1 1 0 -0 -0 -1
6 4 2 2 2 1 0 1 2 0 -0 -0 -0 -0 1 1 1 2 3 1 -0 -1 -2 -2 -1 -0 4 10 11 8 11 10 9 9 7 2 2 2 1 1 1 0 -0
8 6 3 2 3 2 1 2 3 3 1 0 0 0 1 2 2 2 3 2 2 3 3 0 2 5 8 12 12 11 12 12 11 10 7 3 2 1 1 1 0 -0 -0
10 10 9 6 1 2 3 1 2 3 2 2 1 2 1 2 2 3 3 3 3 3 5 5 5 6 8 10 11 11 12 12 11 11 9 4 2 1 1 0 -0 0 0
11 11 10 9 3 1 2 3 2 1 1 1 2 2 3 3 2 3 3 3 3 5 5 6 6 7 9 11 11 12 12 12 12 11 10 5 3 1 1 -0 0 -0 -0
11 11 10 10 8 1 2 3 3 3 0 2 3 3 3 4 3 3 3 4 4 4 6 7 6 7 9 11 11 12 12 12 12 11 10 9 3 2 1 0 -0 -0 -1
12 11 11 9 8 3 2 3 3 3 3 3 3 3 3 4 3 3 3 4 3 5 5 7 8 9 10 11 12 12 12 12 12 12 10 9 7 4 2 1 1 -0 -1
13 12 11 10 9 6 3 3 3 3 4 4 4 3 3 3 3 4 4 5 4 5 6 6 9 10 10 12 13 13 13 12 12 12 11 9 8 7 5 3 2 1 0
13 13 12 11 11 8 5 4 4 5 5 4 3 3 2 2 2 3 4 5 5 6 6 7 10 10 11 12 12 13 13 13 13 12 12 11 9 8 8 6 5 5 3
13 13 13 12 12 10 8 6 7 7 8 5 5 5 3 2 3 3 4 5 5 6 7 8 9 11 11 12 12 13 14 14 13 13 13 12 11 11 10 9 9 9 6
14 13 13 13 13 12 11 10 9 10 10 10 9 9 8 6 4 4 4 5 5 5 6 8 10 10 12 12 14 14 14 14 14 13 13 13 13 12 12 11 11 10 9
15 14 14 13 13 12 12 12 11 11 11 12 11 11 11 10 9 7 6 7 7 7 8 9 10 11 11 12 13 15 16 15 15 14 14 13 13 13 13 12 12 11 11
16 16 14 14 14 13 12 12 12 12 13 13 13 13 13 12 12 12 11 8 8 8 8 9 10 11 11 12 12 12 15 17 17 15 15 14 14 14 14 13 13 12 12
17 16 15 15 15 14 13 13 14 14 15 14 14 14 13 13 14 13 13 12 11 10 9 9 10 11 11 12 12 12 13 14 15 16 16 15 15 14 14 14 14 13 13
16 17 16 15 15 15 15 15 15 16 15 15 15 16 15 15 15 15 14 14 14 13 13 11 10 11 11 12 12 13 14 14 15 15 15 17 16 15 14 14 14 14 14
16 16 16 15 15 15 15 15 15 16 16 16 16 16 16 16 15 16 15 15 14 14 14 14 13 12 11 12 12 13 13 14 15 15 16 15 16 16 16 16 15 14 14

GFSSE_con_lsi_030.txt.gz
Lid_Strength_Index
2 1 -1 -1 -1 -1 -1 -1 -1 -1 -1 -1 -1 -1 -1 -1 -1 -1 -1 -1 -2 -2 -2 -2 -1 -2 -2 -1 -1 -1 -1 -1 -1 -1 -1 -1 -2 -2 -2 -1 -1 -1 -1
1 1 -1 -1 -1 -1 -1 -1 -1 -1 -1 -1 -1 -1 -1 -1 -1 -1 -1 -2 -2 -1 -1 -1 -1 -2 -1 -1 -1 -1 -1 -0 -1 -1 -1 -2 -2 -2 -2 -2 -2 -1 -1
1 -0 -0 -1 -1 -1 -1 -1 -1 -1 -1 -1 -1 -1 -1 -1 -1 -1 -1 -1 -1 -1 -1 -1 -1 -2 -1 -0 -0 0 0 0 -1 -1 -1 0 0 -1 -2 -1 -2 -2 -2
1 -0 -0 -0 -1 -1 -1 -1 -1 -1 -1 -1 -1 -1 -1 -1 -1 -1 -1 -1 -1 -1 -1 -1 -1 -1 0 0 0 -0 -0 -1 -2 -1 0 1 -0 -1 -2 -1 -2 -2 -1
0 0 -0 -0 -1 -1 -1 -1 -1 -2 -2 -1 -1 -1 -1 -1 -1 -1 -1 -1 -1 -1 -1 -1 -1 0 1 1 1 1 0 -1 -1 1 1 1 1 -1 -2 -2 -1 -1 -2
1 0 0 -1 -1 -1 -1 -1 -1 -1 -1 -1 -1 -1 -1 -1 -1 -1 -1 -1 -1 -2 -1 -1 -1 1 2 2 2 1 1 -1 1 3 3 1 1 -1 -2 -1 -1 -2 -2
1 1 1 -0 -1 -1 -1 -1 -1 -1 -1 -1 -1 -1 -1 -1 -1 -1 -2 -2 -2 -1 -1 -1 -1 -0 1 3 2 2 0 -1 2 3 3 3 1 -1 -1 -1 -1 -2 -1
1 1 0 1 0 -0 -1 -1 -1 -1 -1 -1 -2 -1 -1 -1 -1 -1 -2 -2 -2 -1 -1 -1 -0 -0 1 2 2 1 0 0 3 3 4 3 -1 -1 -1 -1 -1 -1 -1
3 2 1 1 1 2 1 0 -0 -1 -1 -1 -1 -1 -1 -1 -1 -2 -2 -2 -1 -1 -1 -1 -0 -1 1 2 2 1 1 2 6 4 3 3 -1 -1 -1 -1 -1 -1 -1
4 2 2 1 -0 1 1 2 1 0 -0 -0 -0 0 0 0 -0 -0 -0 -1 -1 -1 -1 -1 -0 -0 1 3 3 2 2 3 6 6 5 3 -1 -0 -0 -1 -1 -1 -1
4 3 2 2 0 1 0 1 3 2 1 1 1 1 2 1 0 1 2 0 -1 -2 -1 -1 -0 0 1 4 4 4 6 8 8 7 6 2 1 0 1 0 0 -0 -1
10 8 4 2 2 1 1 1 1 1 0 -0 -0 -0 0 1 1 1 2 1 -1 -1 -1 -1 -1 1 5 10 12 9 12 10 10 9 8 2 1 1 1 1 1 0 -0
12 10 10 9 3 1 2 1 2 2 2 0 -0 -0 0 1 2 2 2 1 1 2 2 2 4 5 7 11 12 12 12 12 11 11 9 4 2 0 1 1 0 -0 -1
12 11 10 10 9 2 1 1 1 2 3 2 1 0 1 2 2 3 2 2 2 2 3 4 5 7 7 9 10 12 12 12 12 11 10 5 3 1 0 0 -0 -0 -0
12 12 11 10 10 6 1 2 2 2 2 3 2 2 1 2 2 2 2 3 3 3 3 4 6 7 7 9 11 11 12 12 13 11 11 7 4 2 0 -0 -1 -0 -1
13 12 11 10 9 6 2 2 2 2 2 1 2 2 2 2 3 2 3 3 3 4 4 4 5 7 8 10 11 11 12 12 12 12 11 10 5 2 1 -0 -1 -1 -1
13 12 12 10 8 5 3 2 3 2 2 2 2 3 2 3 3 3 3 3 3 4 4 5 6 7 8 11 11 12 12 12 12 12 12 10 8 5 3 0 -0 -1 -1
14 13 12 11 9 5 4 3 4 4 4 3 3 3 2 2 2 2 3 4 4 5 5 6 7 8 8 9 12 12 13 13 12 12 12 11 9 8 6 3 2 1 0
14 14 13 12 11 8 7 7 7 7 8 8 8 6 5 4 3 3 3 3 4 4 5 6 8 7 8 9 10 11 13 13 13 12 13 12 11 9 8 6 4 4 3
14 14 13 13 12 11 8 9 10 10 10 10 10 10 9 8 6 5 5 5 4 5 6 7 7 9 10 10 11 12 13 13 13 13 13 12 12 11 11 10 9 8 5
15 14 14 13 13 12 12 11 11 12 12 12 11 11 11 10 9 8 7 7 7 7 7 7 9 9 9 12 12 11 13 13 14 14 14 13 13 12 12 12 11 11 10
16 15 15 14 14 13 13 12 12 12 13 13 12 13 13 13 12 11 10 9 9 8 9 9 10 10 11 12 12 14 13 13 14 14 14 14 14 14 13 13 13 12 12
17 17 16 15 15 14 13 13 13 14 14 15 15 15 15 15 14 13 13 13 12 11 10 10 10 10 11 11 12 12 14 15 15 15 15 15 14 14 14 14 14 13 13
17 17 16 16 16 15 15 15 16 16 17 17 17 16 15 15 15 15 15 15 14 14 14 13 11 11 11 12 12 12 13 14 15 15 15 14 15 14 14 14 14 14 13
17 18 17 17 16 16 16 16 16 17 17 17 17 16 16 16 15 15 15 15 16 15 15 15 14 13 12 12 12 12 13 14 14 15 15 15 14 15 15 15 14 14 14
17 17 17 17 16 16 16 16 17 17 17 16 17 16 16 16 16 15 15 15 15 16 16 16 16 15 15 14 13 13 13 13 14 14 15 13 13 14 15 15 15 15 15

GFSSE_con_lsi_033.txt.gz
Lid_Strength_Index
0 0 -1 -1 -1 -1 -1 -1 -1 -2 -2 -1 -1 -1 -1 -1 -1 -1 -2 -2 -2 -2 -2 -2 -2 -2 -2 -2 -1 -2 -2 -1 -1 -1 -2 -2 -2 -2 -2 -1 -1 -1 -1
-0 0 -1 -1 -2 -2 -1 -1 -1 -1 -2 -1 -1 -1 -1 -1 -1 -1 -1 -2 -2 -2 -2 -2 -2 -2 -2 -2 -1 -1 -1 -1 -2 -2 -2 -2 -2 -2 -2 -2 -2 -1 -2
-0 -1 -1 -1 -1 -2 -2 -1 -2 -2 -2 -1 -1 -1 -1 -1 -1 -1 -1 -2 -2 -2 -2 -2 -2 -1 -1 -0 -0 -0 -0 -1 -2 -1 -1 -1 -1 -2 -2 -2 -2 -2 -2
-0 -1 -1 -0 -1 -2 -2 -1 -2 -2 -2 -1 -1 -1 -1 -1 -1 -1 -1 -2 -2 -2 -2 -2 -2 -1 0 1 1 0 -1 -1 -1 -1 -1 -1 -1 -2 -2 -2 -2 -2 -2
-0 -1 -1 -0 -1 -2 -2 -1 -2 -2 -2 -1 -1 -1 -1 -1 -1 -1 -1 -1 -2 -2 -2 -2 -1 -0 1 2 1 0 -1 -1 -1 -1 -1 -1 -1 -1 -2 -2 -1 -1 -2
-0 -1 -1 -1 -1 -2 -2 -2 -1 -1 -1 -1 -1 -1 -1 -1 -1 -1 -2 -2 -2 -2 -2 -2 -1 0 2 2 2 1 -1 -1 0 -0 -1 -1 -1 -2 -2 -1 -1 -2 -2
-0 -1 -1 -1 -1 -1 -1 -2 -2 -2 -1 -1 -1 -1 -1 -1 -1 -2 -2 -3 -3 -2 -1 -1 -1 -0 2 3 2 2 0 1 1 0 0 -0 -1 -1 -1 -1 -1 -1 -2
-0 -0 -1 1 0 -0 -1 -2 -1 -2 -2 -2 -2 -2 -1 -1 -1 -1 -2 -3 -2 -2 -1 -1 -1 -1 1 2 1 1 1 2 1 0 0 -0 -1 -2 -1 -1 -1 -1 -1
0 0 -0 -1 -0 2 0 -0 -1 -1 -1 -1 -1 -1 -1 -1 -2 -2 -2 -2 -1 -1 -1 -1 -1 -1 0 2 1 0 1 2 2 3 2 -0 -2 -2 -2 -1 -1 -1 -1
5 3 1 -0 -1 -1 -1 2 1 0 -0 -1 -0 -0 0 0 -0 -0 0 -1 -1 -1 -1 -1 -1 -1 0 2 2 3 3 4 3 3 3 2 0 -0 -0 -1 -1 -1 -1
8 8 7 5 1 -0 0 0 3 2 1 1 0 1 1 -1 -1 0 1 -0 -1 -1 -1 -1 0 -1 2 4 4 5 6 5 5 5 4 1 0 0 0 -0 -0 -0 -1
10 9 8 7 8 2 -0 -1 0 -0 -1 -1 -1 -1 -1 -1 -0 0 2 1 -0 -1 -2 -1 -0 2 4 6 8 7 7 7 6 6 5 3 1 -0 0 0 0 0 -1
11 9 9 9 7 7 1 -0 -0 0 -1 -0 -1 -1 -1 -0 0 1 1 1 0 1 1 1 2 3 4 6 8 8 8 8 7 7 7 4 3 1 -0 -0 -0 -1 -1
11 10 9 9 8 6 2 1 0 0 0 1 0 -1 -1 -0 1 1 2 1 1 1 2 2 2 3 4 6 7 7 8 8 8 7 7 6 4 2 0 -1 -1 -1 -0
12 11 10 9 7 6 2 0 -0 0 0 1 1 1 1 -0 0 1 1 1 0 1 2 3 3 4 3 5 6 8 8 8 8 8 7 7 5 2 1 -0 -1 -1 -1
12 12 10 9 6 3 1 0 1 1 1 1 1 1 1 1 1 2 2 2 2 2 2 2 3 3 3 5 6 8 8 8 8 8 8 7 6 4 2 0 -1 -1 -1
13 12 11 8 4 2 1 2 3 2 3 3 3 3 3 2 2 2 2 2 2 3 3 4 5 5 6 6 6 7 8 8 8 8 8 8 7 6 4 1 -0 -1 -1
13 12 11 9 7 6 6 5 6 7 8 7 6 6 5 4 3 3 4 4 3 4 4 5 5 6 7 7 8 7 8 8 9 9 8 8 7 7 6 4 2 1 1
13 13 11 10 9 8 8 8 9 10 10 9 9 8 7 6 4 4 4 4 4 4 5 6 7 7 8 8 9 9 9 9 9 9 9 9 8 7 6 6 5 4 3
14 13 12 11 10 9 9 9 10 10 11 11 11 10 10 9 8 6 6 6 5 6 6 6 7 8 9 10 10 10 10 10 10 9 9 9 9 9 8 8 6 6 6
14 14 13 12 12 10 10 10 11 12 12 13 13 13 12 11 10 10 8 8 7 8 8 8 7 8 8 10 10 9 10 10 11 10 10 10 10 10 10 9 8 8 7
16 15 15 14 13 12 11 11 11 12 13 14 14 14 14 13 12 12 11 11 11 10 10 10 9 8 9 10 10 11 11 9 10 10 11 11 10 11 10 10 10 10 9
17 17 16 15 14 14 13 12 13 13 14 14 15 15 15 14 14 13 13 13 13 12 12 12 11 10 10 9 10 10 11 12 12 8 10 11 11 10 10 10 11 10 10
17 16 16 16 15 15 14 14 15 15 16 16 16 15 15 15 14 14 13 13 13 13 13 13 13 12 11 12 10 10 11 12 13 13 10 9 10 11 10 10 10 10 10
17 17 16 16 16 16 15 15 15 16 15 15 15 15 15 15 15 14 14 14 14 13 14 13 13 13 12 13 13 12 11 11 12 14 13 12 10 9 10 10 10 10 10
16 16 16 16 16 16 16 16 16 16 16 15 15 15 15 15 15 14 14 14 14 14 14 14 13 13 13 13 13 13 13 13 13 13 14 13 13 11 10 10 10 10 10

GFSSE_con_lsi_036.txt.gz
Lid_Strength_Index
0 -1 -1 -2 -1 -1 -1 -1 -1 -1 -1 -1 -1 -1 -1 -1 -1 -1 -2 -2 -2 -2 -2 -2 -2 -2 -2 -1 -2 -2 -2 -1 -1 -1 -2 -2 -2 -2 -2 -2 -1 -1 -1
-1 -1 -1 -2 -2 -1 -1 -1 -1 -2 -1 -1 -1 -1 -1 -1 -1 -1 -1 -2 -2 -2 -2 -2 -2 -2 -2 -1 -1 -1 -1 -1 -1 -2 -2 -2 -2 -2 -2 -1 -2 -1 -1
-0 -1 -1 -1 -2 -2 -2 -1 -1 -1 -1 -1 -1 -1 -1 -1 -1 -1 -1 -2 -2 -2 -2 -2 -2 -1 -1 -0 -1 -1 -1 -1 -1 -1 -2 -1 -1 -1 -2 -1 -2 -2 -2
-1 -1 -1 -1 -2 -2 -2 -2 -1 -1 -1 -1 -1 -1 -1 -1 -1 -1 -1 -2 -2 -2 -2 -2 -1 -1 -0 0 -0 -0 -1 -1 -1 -1 -1 -1 -1 -2 -2 -2 -1 -2 -2
-1 -1 -1 -1 -1 -2 -2 -2 -1 -1 -1 -1 -1 -1 -1 -1 -1 -1 -1 -2 -2 -2 -2 -2 -2 -1 1 1 1 -0 -1 -1 -1 -1 -1 -1 -1 -1 -1 -2 -1 -1 -2
-1 -1 -1 -1 -1 -2 -2 -1 -1 -1 -1 -1 -1 -1 -1 -1 -1 -1 -2 -2 -2 -2 -2 -2 -2 -0 1 2 2 1 -0 -0 -1 -1 -1 -1 -1 -1 -1 -1 -1 -2 -2
-0 -1 -1 -1 -1 -1 -2 -2 -2 -1 -1 -1 -1 -1 -1 -1 -1 -1 -2 -2 -2 -2 -2 -2 -2 -0 2 2 2 1 1 1 -0 -1 -1 -1 -2 -1 -1 -1 -1 -1 -1
-0 -1 -1 0 0 -1 -1 -1 -2 -2 -2 -2 -2 -1 -1 -1 -1 -1 -2 -2 -2 -2 -2 -2 -2 -1 1 2 1 1 1 1 1 -0 -1 -1 -1 -1 -2 -1 -1 -1 -1
-0 -1 -1 -1 -1 2 1 -0 -1 -1 -1 -1 -1 -2 -1 -1 -2 -2 -2 -2 -1 -1 -2 -2 -1 -1 0 1 1 1 1 2 1 1 1 -0 -1 -1 -1 -1 -1 -1 -1
4 4 4 -1 -1 -1 -1 2 1 -0 -1 -1 -1 -0 0 -0 -1 -0 -0 -1 -1 -1 -1 -1 -0 0 0 2 2 3 3 3 2 2 1 0 0 -0 -0 -1 -1 -1 -1
5 5 4 5 3 -0 -1 -0 2 2 1 0 0 1 1 -1 -1 -1 0 -1 -2 -2 -2 -1 -1 1 2 5 5 5 4 4 4 3 3 2 0 -0 -0 -0 -0 -0 -1
6 6 5 4 4 4 -1 -1 -1 -1 -2 -1 -1 -1 -1 -1 -1 -1 1 1 0 -1 -1 -1 -0 1 1 2 4 5 5 5 5 4 4 3 2 0 -1 -0 -0 -0 -1
7 6 5 5 4 3 -0 -1 -1 -1 -1 -2 -1 -1 -1 -1 -1 -1 -0 0 -1 1 -1 -1 0 -0 0 1 3 5 5 5 5 5 5 5 2 1 -0 -1 -1 -1 -1
7 6 5 4 3 3 -0 -1 -1 -1 -1 -1 -1 -1 -1 -1 -1 -1 -0 0 -0 -0 -0 1 1 0 -0 2 3 3 5 5 5 5 5 6 4 2 0 -1 -1 -1 -1
8 6 6 3 2 2 2 -1 -1 -1 -1 0 0 0 -1 -1 -1 -1 -1 -0 -1 -1 -1 -1 1 2 1 1 2 3 4 5 5 5 5 5 5 4 2 0 -1 -2 -1
8 7 5 5 2 1 -1 -0 1 1 1 1 1 1 1 1 1 0 1 1 0 1 0 1 3 3 3 4 2 3 4 4 5 5 5 5 6 5 3 2 -1 -2 -2
7 6 8 6 4 3 3 4 5 5 5 4 3 3 2 1 1 1 2 3 3 3 3 3 4 4 4 4 5 6 6 4 4 5 5 5 5 4 5 3 2 -0 -1
8 7 7 6 6 6 6 8 8 8 7 6 5 4 4 3 3 3 4 4 4 3 4 4 4 4 5 6 5 5 6 6 5 5 5 5 5 5 4 4 3 2 1
8 7 8 7 7 8 9 9 10 10 8 7 7 6 7 5 4 4 4 4 4 4 5 4 5 5 5 5 5 5 6 7 6 6 5 6 6 6 6 5 6 5 4
9 7 7 8 7 8 8 9 9 9 9 9 8 8 7 7 5 5 4 4 4 4 5 4 5 5 6 7 7 8 7 7 8 7 6 7 7 7 7 7 6 6 6
9 9 8 7 7 5 6 7 8 9 10 10 10 9 9 8 8 7 7 7 6 7 7 6 5 5 6 6 6 5 5 6 7 7 6 7 7 8 7 7 7 7 7
11 10 10 9 8 8 8 8 9 11 11 11 11 11 11 11 10 10 9 10 9 8 9 8 7 6 7 7 8 7 7 6 6 6 6 7 7 7 7 8 8 8 7
12 11 11 10 10 9 10 10 11 11 11 12 12 12 12 12 12 11 11 11 11 11 11 11 9 9 8 7 7 8 9 9 9 6 6 7 6 7 7 6 7 7 7
13 12 12 11 11 11 10 10 11 11 13 13 13 13 13 12 12 12 12 12 11 11 12 11 11 11 10 11 8 8 7 8 10 11 8 8 8 8 8 7 7 7 7
14 13 13 13 13 12 12 11 12 13 13 13 12 13 13 12 12 12 12 12 12 12 11 11 11 11 11 11 11 11 11 10 8 11 12 11 11 10 9 9 9 8 7
14 14 13 14 14 13 12 12 12 12 13 13 13 13 13 12 12 12 12 12 12 12 12 11 11 11 11 11 11 11 11 12 12 12 13 12 12 11 11 10 9 9 7